Flag for Canada Weather past 2 weeks in Lloydminster, Alberta, Canada

57 °F

Partly sunny.

Feels Like: 55 °F
Forecast: 40 / 58 °F
Wind: 8 mph from Northwest

Location: Lloydminister

Current Time: Oct 7, 2015 at 12:24:16 PM

Latest Report: Oct 7, 2015 at 12:00 PM

Visibility: 15 mi

Pressure: 29.96 "Hg (27.74 "Hg at 648m altitude)

Humidity: 51%

Dew point: 39 °F

Location of LloydminsterLocation

Historic Weather in Lloydminster — Graph


Lloydminster temperature yesterday

Maximum temperature yesterday: 55 °F (at 3:00 PM)
Minimum temperature yesterday: 25 °F (at 4:00 AM)
Average temperature yesterday: 41 °F

Past Weeks' High & Low Weather Summary

High72 °F (Oct 1, 4:00 PM)100% (Oct 2, 1:55 AM)30.41 "Hg (Oct 2, 1:55 AM)
Low25 °F (Sep 28, 4:00 AM)32% (Sep 27, 4:00 PM)29.80 "Hg (Sep 25, 10:00 AM)
Average46 °F72%30.07 "Hg
* Reported Sep 22 11:00 AM — Oct 7 11:00 AM, Lloydminster, Weather by CustomWeather, © 2015

Note: Actual official high and low records may vary slightly from our data, if they occured in-between our weather recording intervals... More about our weather records


Lloydminster weather history for previous 24 hours

Time TempWeatherWind HumidityBarometerVisibility
11:00 AM
Wed, Oct 7
52 °FPassing clouds.7 mph62%29.97 "Hg15 mi
10:00 AM46 °FPartly sunny.5 mph76%29.97 "Hg15 mi
9:00 AM41 °FBroken clouds.5 mph87%29.96 "Hg15 mi
8:00 AM37 °FPartly cloudy.3 mph87%29.96 "Hg15 mi
7:00 AM39 °FPassing clouds.2 mph87%29.95 "Hg15 mi
6:00 AM39 °FMostly cloudy.3 mph87%29.94 "Hg9 mi
5:00 AM39 °FMostly cloudy.5 mph81%29.93 "Hg9 mi
4:00 AM39 °FPassing clouds.6 mph87%29.93 "Hg9 mi
3:00 AM39 °FPassing clouds.5 mph87%29.94 "Hg9 mi
2:00 AM41 °FPassing clouds.6 mph76%29.94 "Hg9 mi
1:00 AM43 °FPassing clouds.9 mph76%29.94 "Hg9 mi
12:00 AM45 °FMostly cloudy.10 mph71%29.97 "Hg9 mi
11:00 PM
Tue, Oct 6
45 °FOvercast.9 mph66%29.99 "Hg9 mi
10:00 PM46 °FPassing clouds.10 mph62%30.01 "Hg15 mi
9:00 PM46 °FPartly cloudy.13 mph62%30.02 "Hg15 mi
8:00 PM48 °FPassing clouds.14 mph54%30.05 "Hg15 mi
7:00 PM46 °FPartly sunny.10 mph53%30.07 "Hg15 mi
6:00 PM52 °FPartly sunny.16 mph44%30.08 "Hg15 mi
5:00 PM52 °FPartly sunny.14 mph41%30.11 "Hg15 mi
4:00 PM54 °FBroken clouds.15 mph41%30.12 "Hg15 mi
3:00 PM55 °FPartly sunny.17 mph38%30.14 "Hg15 mi
2:00 PM54 °FPassing clouds.14 mph41%30.18 "Hg15 mi
1:00 PM52 °FScattered clouds.13 mph41%30.20 "Hg15 mi
12:00 PM50 °FPassing clouds.14 mph47%30.22 "Hg15 mi
Weather by CustomWeather, © 2015

See weather overviewHow to use our weather pages